Карточка аэропорта UATG

Внимание!
Информация на этой странице в стадии наполнения.
Если вы не увидели какой-то информации, или заметили неточность - пожалуйста сообщите нам!
Спасибо!
Команда RU-STAFF
Название аэропортаАтырау
Название аэропорта (англ.)Atyrau
Превышение-72 ft. (-21.9 m.)
Координаты47°7.332', 51°49.764'
Высота перехода10000ft
Эшелон переходаFL120, QNH<733:FL130
Коды ответчика3450-3457, 3560-3567
Зона ОрВДАктобе РПИ (UATT)
Данные METARUATG 290230Z 11004MPS CAVOK 18/05 Q1020 NOSIG RMK QFE767/1023
Проноз погоды (TAF)UATG 281700Z 2818/2918 VRB02MPS CAVOK TX27/2910Z TN15/2902Z BECMG 2900/2902 12008MPS TEMPO 2915/2918 VRB02MPS
NOTAMshow/hide NOTAM
AWOS   TABLE

Информация о ВПП

ВПП Длина ВПП (м.) Покрытие Курс ВПП Частота ILS
143000Асфальтобетон149109.9
323000Асфальтобетон329108.3

Диспетчерские позиции

Позывной Наименование органа УВД Частота
UATG_TWRАтырау Вышка118.1
UATG_APPАтырау Подход123.7



Спутниковое изображение